LCR YARM-YSBK

Flight info

Callsign LCR
Flight time N/A
Altitude 31000
Route N0313F310 DCT ARM W786 SANAD Q155 RIC V11 BK DCT
Aircraft SF50/L-SBDE2GRWXY/LB2

Departure

Time 2026-04-26 08:50
Airport Armidale Airport (YARM)

Arrival

Time N/A
Airport Sydney Bankstown Airport (YSBK)
Time Latitude Longitude Altitude Speed Heading
2026-04-26 08:17 -30.53086 151.61576 3543 ft 0 kts 210°
2026-04-26 08:48 -30.53087 151.61576 3543 ft 0 kts 213°
2026-04-26 08:48 -30.53076 151.61531 3543 ft 17 kts 324°
2026-04-26 08:49 -30.53035 151.61409 3542 ft 30 kts 239°
2026-04-26 08:49 -30.53236 151.61028 3539 ft 79 kts 238°
2026-04-26 08:49 -30.53592 151.60402 3644 ft 99 kts 232°
2026-04-26 08:49 -30.54061 151.59751 3878 ft 118 kts 226°
2026-04-26 08:50 -30.54679 151.59072 4302 ft 121 kts 205°
2026-04-26 08:50 -30.55494 151.59131 4637 ft 130 kts 156°
2026-04-26 08:50 -30.56458 151.59255 4837 ft 154 kts 189°
2026-04-26 08:50 -30.57577 151.58970 4997 ft 175 kts 189°
2026-04-26 08:51 -30.59999 151.58457 5882 ft 177 kts 188°
2026-04-26 08:51 -30.61213 151.58190 6327 ft 178 kts 188°
2026-04-26 08:51 -30.62434 151.57927 6728 ft 180 kts 188°
2026-04-26 08:52 -30.63666 151.57655 7112 ft 182 kts 188°
2026-04-26 08:52 -30.64916 151.57383 7501 ft 183 kts 188°
2026-04-26 08:52 -30.66176 151.57109 7875 ft 185 kts 188°
2026-04-26 08:52 -30.67449 151.56833 8236 ft 187 kts 188°
2026-04-26 08:53 -30.68733 151.56553 8588 ft 189 kts 188°
2026-04-26 08:53 -30.70033 151.56267 8944 ft 191 kts 188°
2026-04-26 08:53 -30.71345 151.55984 9295 ft 192 kts 188°
2026-04-26 08:53 -30.72662 151.55698 9658 ft 193 kts 188°
2026-04-26 08:54 -30.73983 151.55410 10020 ft 193 kts 188°
2026-04-26 08:54 -30.75291 151.55126 10373 ft 194 kts 188°
2026-04-26 08:54 -30.76617 151.54839 10727 ft 194 kts 187°
2026-04-26 08:54 -30.77947 151.54549 11080 ft 194 kts 188°
2026-04-26 08:55 -30.79277 151.54259 11429 ft 195 kts 187°
2026-04-26 08:55 -30.80611 151.53969 11788 ft 195 kts 187°
2026-04-26 08:55 -30.81946 151.53679 12140 ft 195 kts 187°
2026-04-26 08:55 -30.83285 151.53387 12481 ft 197 kts 187°
2026-04-26 08:56 -30.84636 151.53093 12824 ft 198 kts 187°
2026-04-26 08:56 -30.85550 151.52893 13050 ft 198 kts 187°
2026-04-26 08:56 -30.87352 151.52498 13485 ft 200 kts 187°
2026-04-26 08:56 -30.88724 151.52198 13813 ft 201 kts 187°
2026-04-26 08:57 -30.90102 151.51897 14152 ft 202 kts 187°
2026-04-26 08:57 -30.91487 151.51594 14478 ft 203 kts 187°
2026-04-26 08:57 -30.92878 151.51290 14812 ft 204 kts 187°
2026-04-26 08:57 -30.94276 151.50983 15131 ft 205 kts 188°
2026-04-26 08:58 -30.95683 151.50675 15451 ft 206 kts 187°
2026-04-26 08:58 -30.97095 151.50365 15770 ft 207 kts 187°
2026-04-26 08:58 -30.98515 151.50056 16085 ft 208 kts 187°
2026-04-26 08:58 -30.99941 151.49742 16400 ft 209 kts 187°
2026-04-26 08:59 -31.01379 151.49427 16712 ft 210 kts 187°
2026-04-26 08:59 -31.02823 151.49112 17024 ft 212 kts 187°
2026-04-26 08:59 -31.04272 151.48795 17332 ft 213 kts 187°
2026-04-26 08:59 -31.05730 151.48478 17632 ft 214 kts 187°
2026-04-26 09:00 -31.07177 151.48160 17934 ft 215 kts 187°
2026-04-26 09:00 -31.08649 151.47838 18230 ft 216 kts 187°
2026-04-26 09:00 -31.10130 151.47515 18530 ft 216 kts 187°
2026-04-26 09:00 -31.11617 151.47189 18830 ft 218 kts 187°
2026-04-26 09:01 -31.13110 151.46860 19143 ft 218 kts 187°
2026-04-26 09:01 -31.14606 151.46533 19440 ft 219 kts 187°
2026-04-26 09:01 -31.16111 151.46202 19742 ft 220 kts 187°
2026-04-26 09:01 -31.17619 151.45870 20043 ft 221 kts 187°
2026-04-26 09:02 -31.19132 151.45536 20341 ft 222 kts 187°
2026-04-26 09:02 -31.20653 151.45202 20630 ft 223 kts 187°
2026-04-26 09:02 -31.22176 151.44868 20926 ft 223 kts 187°
2026-04-26 09:02 -31.23703 151.44531 21227 ft 223 kts 187°
2026-04-26 09:03 -31.25208 151.44197 21550 ft 223 kts 187°
2026-04-26 09:03 -31.26733 151.43862 21871 ft 222 kts 187°
2026-04-26 09:03 -31.28250 151.43527 22192 ft 222 kts 187°
2026-04-26 09:03 -31.29762 151.43192 22517 ft 221 kts 187°
2026-04-26 09:04 -31.31271 151.42859 22830 ft 220 kts 187°
2026-04-26 09:04 -31.32777 151.42529 23143 ft 220 kts 187°
2026-04-26 09:04 -31.34278 151.42197 23451 ft 219 kts 187°
2026-04-26 09:04 -31.35777 151.41868 23756 ft 219 kts 187°
2026-04-26 09:05 -31.37269 151.41538 24058 ft 218 kts 187°
2026-04-26 09:05 -31.38755 151.41187 24347 ft 219 kts 192°
2026-04-26 09:05 -31.40186 151.40555 24624 ft 220 kts 197°
2026-04-26 09:05 -31.41617 151.39933 24914 ft 219 kts 196°
2026-04-26 09:06 -31.43046 151.39326 25205 ft 218 kts 197°
2026-04-26 09:06 -31.44466 151.38710 25493 ft 217 kts 197°
2026-04-26 09:06 -31.45879 151.38095 25765 ft 217 kts 197°
2026-04-26 09:06 -31.47293 151.37480 26029 ft 217 kts 197°
2026-04-26 09:07 -31.48703 151.36868 26313 ft 216 kts 197°
2026-04-26 09:07 -31.50088 151.36266 26583 ft 215 kts 197°
2026-04-26 09:07 -31.51507 151.35650 26866 ft 214 kts 197°
2026-04-26 09:07 -31.52885 151.35050 27107 ft 214 kts 197°
2026-04-26 09:08 -31.54276 151.34445 27368 ft 213 kts 198°
2026-04-26 09:08 -31.55662 151.33839 27624 ft 212 kts 198°
2026-04-26 09:08 -31.57044 151.33236 27871 ft 212 kts 198°
2026-04-26 09:08 -31.58424 151.32633 28109 ft 211 kts 198°
2026-04-26 09:09 -31.59799 151.32034 28350 ft 211 kts 198°
2026-04-26 09:09 -31.61171 151.31435 28579 ft 210 kts 198°
2026-04-26 09:09 -31.62537 151.30837 28813 ft 209 kts 198°
2026-04-26 09:09 -31.63902 151.30243 29051 ft 209 kts 198°
2026-04-26 09:10 -31.65265 151.29646 29275 ft 208 kts 198°
2026-04-26 09:10 -31.66623 151.29052 29488 ft 208 kts 198°
2026-04-26 09:10 -31.67979 151.28460 29701 ft 207 kts 198°
2026-04-26 09:10 -31.69328 151.27870 29919 ft 207 kts 198°
2026-04-26 09:11 -31.70679 151.27279 30136 ft 207 kts 198°
2026-04-26 09:11 -31.72027 151.26689 30353 ft 206 kts 199°
2026-04-26 09:11 -31.73373 151.26099 30565 ft 206 kts 199°
2026-04-26 09:11 -31.74713 151.25513 30769 ft 206 kts 199°
2026-04-26 09:12 -31.76041 151.24934 30962 ft 205 kts 199°
2026-04-26 09:12 -31.77382 151.24347 31142 ft 206 kts 199°
2026-04-26 09:12 -31.78739 151.23753 31227 ft 212 kts 199°
2026-04-26 09:12 -31.80153 151.23135 31240 ft 221 kts 199°
2026-04-26 09:13 -31.81120 151.22713 31242 ft 226 kts 199°
2026-04-26 09:13 -31.83141 151.21827 31241 ft 236 kts 199°
2026-04-26 09:13 -31.84705 151.21141 31239 ft 244 kts 199°
2026-04-26 09:13 -31.85764 151.20677 31238 ft 248 kts 199°
2026-04-26 09:14 -31.87400 151.19961 31239 ft 253 kts 199°
2026-04-26 09:14 -31.89065 151.19228 31241 ft 258 kts 199°
2026-04-26 09:14 -31.91319 151.18240 31242 ft 263 kts 199°
2026-04-26 09:14 -31.92485 151.17728 31239 ft 266 kts 199°
2026-04-26 09:15 -31.94793 151.16714 31240 ft 269 kts 199°
2026-04-26 09:15 -31.95980 151.16191 31243 ft 271 kts 199°
2026-04-26 09:15 -31.98336 151.15156 31246 ft 274 kts 199°
2026-04-26 09:15 -31.99521 151.14634 31248 ft 275 kts 199°
2026-04-26 09:16 -32.01322 151.13840 31248 ft 278 kts 199°
2026-04-26 09:16 -32.03137 151.13039 31249 ft 279 kts 199°
2026-04-26 09:16 -32.04965 151.12234 31250 ft 281 kts 199°
2026-04-26 09:16 -32.06777 151.11344 31246 ft 284 kts 207°
2026-04-26 09:17 -32.08457 151.10100 31250 ft 286 kts 211°
2026-04-26 09:17 -32.10157 151.08857 31249 ft 288 kts 210°
2026-04-26 09:17 -32.11872 151.07623 31248 ft 290 kts 210°
2026-04-26 09:17 -32.13595 151.06362 31250 ft 292 kts 210°
2026-04-26 09:18 -32.15322 151.05089 31248 ft 294 kts 210°
2026-04-26 09:18 -32.17065 151.03815 31249 ft 295 kts 210°
2026-04-26 09:18 -32.18814 151.02535 31251 ft 297 kts 210°
2026-04-26 09:18 -32.20570 151.01247 31252 ft 298 kts 210°
2026-04-26 09:19 -32.22338 150.99952 31253 ft 299 kts 210°
2026-04-26 09:19 -32.24108 150.98654 31255 ft 297 kts 210°
2026-04-26 09:19 -32.25864 150.97363 31253 ft 297 kts 210°
2026-04-26 09:19 -32.27619 150.96074 31252 ft 297 kts 210°
2026-04-26 09:20 -32.29375 150.94785 31252 ft 297 kts 210°
2026-04-26 09:20 -32.31133 150.93493 31253 ft 297 kts 210°
2026-04-26 09:20 -32.32870 150.92216 31253 ft 298 kts 210°
2026-04-26 09:20 -32.34631 150.90923 31253 ft 298 kts 210°
2026-04-26 09:21 -32.36389 150.89627 31253 ft 297 kts 211°
2026-04-26 09:21 -32.38146 150.88333 31253 ft 297 kts 210°
2026-04-26 09:21 -32.39904 150.87040 31253 ft 297 kts 210°
2026-04-26 09:21 -32.41658 150.85748 31253 ft 297 kts 211°
2026-04-26 09:22 -32.43418 150.84450 31253 ft 297 kts 210°
2026-04-26 09:22 -32.45177 150.83154 31254 ft 297 kts 210°
2026-04-26 09:22 -32.47028 150.82089 31248 ft 296 kts 198°
2026-04-26 09:22 -32.49029 150.81559 31246 ft 295 kts 186°
2026-04-26 09:23 -32.51076 150.81470 31247 ft 294 kts 181°
2026-04-26 09:23 -32.53130 150.81402 31248 ft 295 kts 181°
2026-04-26 09:23 -32.55180 150.81318 31248 ft 295 kts 181°
2026-04-26 09:23 -32.57207 150.81245 31249 ft 296 kts 181°
2026-04-26 09:24 -32.59264 150.81178 31249 ft 296 kts 181°
2026-04-26 09:24 -32.61323 150.81106 31250 ft 296 kts 181°
2026-04-26 09:24 -32.63389 150.81032 31250 ft 296 kts 181°
2026-04-26 09:24 -32.65450 150.80961 31249 ft 296 kts 181°
2026-04-26 09:25 -32.67508 150.80888 31250 ft 296 kts 181°
2026-04-26 09:25 -32.69569 150.80817 31249 ft 296 kts 181°
2026-04-26 09:25 -32.71628 150.80743 31249 ft 296 kts 181°
2026-04-26 09:25 -32.73660 150.80672 31249 ft 296 kts 181°
2026-04-26 09:26 -32.75721 150.80600 31249 ft 296 kts 181°
2026-04-26 09:26 -32.77778 150.80529 31249 ft 296 kts 181°
2026-04-26 09:26 -32.79837 150.80456 31250 ft 296 kts 181°
2026-04-26 09:26 -32.81898 150.80385 31249 ft 296 kts 181°
2026-04-26 09:27 -32.83958 150.80312 31249 ft 296 kts 181°
2026-04-26 09:27 -32.86020 150.80239 31249 ft 296 kts 181°
2026-04-26 09:27 -32.88078 150.80167 31249 ft 296 kts 181°
2026-04-26 09:27 -32.90135 150.80094 31249 ft 296 kts 181°
2026-04-26 09:28 -32.92194 150.80023 31249 ft 296 kts 181°
2026-04-26 09:28 -32.94254 150.79951 31249 ft 296 kts 181°
2026-04-26 09:28 -32.96312 150.79879 31250 ft 296 kts 181°
2026-04-26 09:28 -32.98373 150.79807 31250 ft 296 kts 181°
2026-04-26 09:29 -33.00432 150.79734 31249 ft 296 kts 181°
2026-04-26 09:29 -33.02467 150.79664 31250 ft 296 kts 181°
2026-04-26 09:29 -33.04527 150.79593 31249 ft 296 kts 181°
2026-04-26 09:29 -33.06588 150.79518 31249 ft 296 kts 181°
2026-04-26 09:30 -33.08648 150.79447 31249 ft 296 kts 181°
2026-04-26 09:30 -33.10708 150.79375 31249 ft 296 kts 181°
2026-04-26 09:30 -33.12772 150.79302 31247 ft 296 kts 181°
2026-04-26 09:30 -33.14832 150.79230 31247 ft 297 kts 181°
2026-04-26 09:31 -33.16898 150.79158 31246 ft 297 kts 181°
2026-04-26 09:31 -33.18966 150.79084 31248 ft 297 kts 181°
2026-04-26 09:31 -33.21034 150.79013 31247 ft 297 kts 181°
2026-04-26 09:31 -33.23104 150.78939 31248 ft 297 kts 181°
2026-04-26 09:32 -33.25171 150.78867 31249 ft 297 kts 181°
2026-04-26 09:32 -33.27239 150.78793 31248 ft 297 kts 181°
2026-04-26 09:32 -33.29305 150.78719 31248 ft 297 kts 181°
2026-04-26 09:32 -33.31374 150.78645 31247 ft 297 kts 181°
2026-04-26 09:33 -33.33441 150.78572 31248 ft 297 kts 181°
2026-04-26 09:33 -33.35482 150.78500 31248 ft 297 kts 181°
2026-04-26 09:33 -33.37554 150.78426 31248 ft 297 kts 181°
2026-04-26 09:33 -33.39620 150.78353 31247 ft 297 kts 181°
2026-04-26 09:34 -33.41685 150.78279 31247 ft 297 kts 181°
2026-04-26 09:34 -33.43754 150.78205 31247 ft 297 kts 181°
2026-04-26 09:34 -33.45827 150.78134 31248 ft 297 kts 181°
2026-04-26 09:34 -33.47893 150.78059 31248 ft 297 kts 181°
2026-04-26 09:35 -33.49961 150.77983 31248 ft 297 kts 181°
2026-04-26 09:35 -33.52030 150.77910 31248 ft 298 kts 181°
2026-04-26 09:35 -33.54108 150.77836 31247 ft 298 kts 181°
2026-04-26 09:35 -33.56181 150.77762 31248 ft 298 kts 181°
2026-04-26 09:36 -33.58227 150.77729 31244 ft 298 kts 176°
2026-04-26 09:36 -33.60255 150.78192 31240 ft 298 kts 162°
2026-04-26 09:36 -33.62145 150.79192 31240 ft 297 kts 151°
2026-04-26 09:36 -33.63963 150.80375 31242 ft 297 kts 152°
2026-04-26 09:37 -33.65795 150.81533 31243 ft 298 kts 152°